Portada
METAR-TAF:

METAR-TAF

Aeropuertos :

Aeropuerto Yariguíes

Barrancabermeja, Colombia

latitud: 07-01N, longitud: 073-48W, altitud: 126 m

Observación

El informe se hizo hace 5 horas y 17 minutos, a las 23:00 UTC
Viento 3 kt del este
Temperatura 31°C
Humedad 66%
Presión 1007 hPa
Visibilidad 10 km o más
Nubes dispersas a una altura de 1500 ft, Cumulus congestus.
Nubes dispersas a una altura de 20000 ft
chaparrones en las proximidades

METAR: SKEJ 182300Z 09003KT 9999 VCSH SCT015TCU SCT200 31/24 A2974 RMK TCU VCSH NE

Hora: 23:17 (04:17 UTC)


TAF: falta

Observaciones y pronósticos meteorológicos de más de 4000 aeropuertos (mensajes METAR y TAF).

Los puntos amarillos y rojos representan las estaciones disponibles.

Ponga el ratón en el punto deseado para ver el nombre de la estación.

Haga clic para ver las observaciones y los pronósticos meteorológicos.

Para cambiar el mapa : haga clic en los botones verdes con una cruz de color negro para hacer un zoom, en el botón verde con un guión para alejar o en las flechas verdes para mapas adyacentes.


METAR-TAF: